Hourly Weather Klaczyna

Today, 25 July, Sunday

Time Temperature Precipitation Wind Pressure Humidity
00:00 +18°C° 0 mm 2 mps 737 mmHg 75%
01:00 +18°C° 0 mm 2 mps 737 mmHg 76%
02:00 +19°C° 0 mm 2 mps 736 mmHg 72%
03:00 +20°C° 0 mm 2 mps 736 mmHg 69%
04:00 +20°C° 0 mm 2 mps 736 mmHg 65%
05:00 +21°C° 0.1 mm 2 mps 736 mmHg 66%
06:00 +21°C° 0.1 mm 2 mps 736 mmHg 66%
07:00 +23°C° 0 mm 2 mps 736 mmHg 68%
08:00 +22°C° 0.2 mm 3 mps 736 mmHg 71%
09:00 +22°C° 0.2 mm 3 mps 736 mmHg 74%
10:00 +22°C° 0.2 mm 4 mps 737 mmHg 78%
11:00 +23°C° 0.1 mm 4 mps 737 mmHg 73%
12:00 +25°C° 0.1 mm 4 mps 737 mmHg 68%
13:00 +26°C° 0.1 mm 4 mps 737 mmHg 64%
14:00 +26°C° 0.1 mm 4 mps 736 mmHg 63%
15:00 +26°C° 0.1 mm 4 mps 736 mmHg 62%
16:00 +26°C° 0.1 mm 3 mps 736 mmHg 61%
17:00 +25°C° 0.1 mm 3 mps 736 mmHg 65%
18:00 +24°C° 0.1 mm 3 mps 736 mmHg 69%
19:00 +23°C° 0.1 mm 2 mps 736 mmHg 74%
20:00 +21°C° 0 mm 2 mps 736 mmHg 77%
21:00 +20°C° 0 mm 2 mps 736 mmHg 81%
22:00 +19°C° 0 mm 2 mps 736 mmHg 85%
23:00 +18°C° 0.1 mm 2 mps 736 mmHg 85%

Tomorrow, 26 July, Monday

Time Temperature Precipitation Wind Pressure Humidity
00:00 +19°C° 0.1 mm 1 mps 736 mmHg 86%
01:00 +18°C° 0.1 mm 1 mps 736 mmHg 87%
02:00 +18°C° 0 mm 1 mps 736 mmHg 87%
03:00 +18°C° 0 mm 1 mps 736 mmHg 88%
04:00 +16°C° 0 mm 0 mps 736 mmHg 89%
05:00 +19°C° 0 mm 1 mps 736 mmHg 85%
06:00 +20°C° 0 mm 1 mps 736 mmHg 81%
07:00 +22°C° 0 mm 1 mps 736 mmHg 78%
08:00 +23°C° 0 mm 1 mps 737 mmHg 72%
09:00 +25°C° 0 mm 2 mps 737 mmHg 66%
10:00 +27°C° 0 mm 2 mps 737 mmHg 60%
11:00 +27°C° 0.1 mm 2 mps 737 mmHg 57%
12:00 +28°C° 0.1 mm 2 mps 737 mmHg 54%
13:00 +29°C° 0.1 mm 2 mps 737 mmHg 51%
14:00 +29°C° 0.1 mm 2 mps 737 mmHg 50%
15:00 +29°C° 0.1 mm 1 mps 737 mmHg 50%
16:00 +29°C° 0.1 mm 1 mps 737 mmHg 49%
17:00 +28°C° 0 mm 1 mps 736 mmHg 54%
18:00 +27°C° 0 mm 1 mps 736 mmHg 60%
19:00 +26°C° 0 mm 1 mps 736 mmHg 65%
20:00 +24°C° 0.3 mm 1 mps 736 mmHg 70%
21:00 +23°C° 0.3 mm 2 mps 737 mmHg 74%
22:00 +21°C° 0.3 mm 2 mps 737 mmHg 78%
23:00 +20°C° 0.2 mm 2 mps 737 mmHg 82%

Day after tomorrow, 27 July, Tuesday

Time Temperature Precipitation Wind Pressure Humidity
00:00 +19°C° 0.2 mm 2 mps 737 mmHg 86%
01:00 +19°C° 0.2 mm 2 mps 737 mmHg 89%
02:00 +19°C° 0 mm 2 mps 737 mmHg 89%
03:00 +19°C° 0 mm 2 mps 737 mmHg 88%
04:00 +19°C° 0 mm 2 mps 738 mmHg 87%
05:00 +19°C° 0.1 mm 2 mps 738 mmHg 85%
06:00 +20°C° 0.1 mm 2 mps 738 mmHg 82%
07:00 +21°C° 0.1 mm 2 mps 738 mmHg 79%
08:00 +23°C° 0 mm 2 mps 739 mmHg 73%
09:00 +24°C° 0 mm 2 mps 739 mmHg 67%
10:00 +26°C° 0 mm 2 mps 739 mmHg 60%
11:00 +27°C° 0.1 mm 2 mps 739 mmHg 57%
12:00 +28°C° 0.1 mm 2 mps 739 mmHg 54%
13:00 +28°C° 0.1 mm 3 mps 739 mmHg 50%
14:00 +28°C° 0 mm 3 mps 738 mmHg 51%
15:00 +28°C° 0 mm 3 mps 738 mmHg 52%
16:00 +28°C° 0 mm 2 mps 738 mmHg 52%
17:00 +27°C° 0 mm 2 mps 738 mmHg 58%
18:00 +26°C° 0 mm 2 mps 738 mmHg 63%
19:00 +25°C° 0 mm 1 mps 738 mmHg 69%
20:00 +24°C° 0 mm 1 mps 738 mmHg 71%
21:00 +23°C° 0 mm 1 mps 738 mmHg 73%
22:00 +22°C° 0 mm 1 mps 739 mmHg 74%
23:00 +21°C° 0 mm 1 mps 739 mmHg 75%

28 July, Wednesday

Time Temperature Precipitation Wind Pressure Humidity
00:00 +21°C° 0 mm 1 mps 739 mmHg 76%
01:00 +20°C° 0 mm 1 mps 739 mmHg 77%
02:00 +19°C° 0 mm 2 mps 739 mmHg 78%
03:00 +19°C° 0 mm 2 mps 738 mmHg 78%
04:00 +18°C° 0 mm 2 mps 738 mmHg 78%
05:00 +20°C° 0 mm 2 mps 738 mmHg 73%
06:00 +21°C° 0 mm 2 mps 739 mmHg 69%
07:00 +24°C° 0 mm 2 mps 739 mmHg 64%
08:00 +24°C° 0 mm 2 mps 739 mmHg 63%
09:00 +24°C° 0 mm 2 mps 739 mmHg 61%
10:00 +24°C° 0 mm 2 mps 739 mmHg 59%
11:00 +24°C° 0 mm 2 mps 739 mmHg 61%
12:00 +24°C° 0 mm 2 mps 739 mmHg 63%
13:00 +24°C° 0 mm 2 mps 739 mmHg 64%
14:00 +23°C° 0.1 mm 2 mps 739 mmHg 69%
15:00 +21°C° 0.1 mm 2 mps 739 mmHg 73%
16:00 +20°C° 0.1 mm 2 mps 739 mmHg 78%
17:00 +20°C° 0.3 mm 2 mps 739 mmHg 82%
18:00 +19°C° 0.3 mm 2 mps 739 mmHg 86%
19:00 +19°C° 0.3 mm 2 mps 739 mmHg 90%
20:00 +18°C° 0 mm 2 mps 739 mmHg 90%
21:00 +17°C° 0 mm 2 mps 739 mmHg 91%
22:00 +17°C° 0 mm 2 mps 739 mmHg 91%
23:00 +16°C° 0 mm 2 mps 739 mmHg 92%

29 July, Thursday

Time Temperature Precipitation Wind Pressure Humidity
00:00 +16°C° 0 mm 2 mps 740 mmHg 92%
01:00 +15°C° 0 mm 2 mps 740 mmHg 92%
02:00 +15°C° 0 mm 2 mps 740 mmHg 92%
03:00 +15°C° 0 mm 2 mps 740 mmHg 92%
04:00 +15°C° 0 mm 2 mps 740 mmHg 92%
05:00 +17°C° 0 mm 2 mps 740 mmHg 88%
06:00 +18°C° 0 mm 2 mps 740 mmHg 83%
07:00 +20°C° 0 mm 1 mps 740 mmHg 79%
08:00 +22°C° 0 mm 1 mps 740 mmHg 71%
09:00 +24°C° 0 mm 1 mps 740 mmHg 63%
10:00 +26°C° 0 mm 1 mps 740 mmHg 55%
11:00 +27°C° 0 mm 2 mps 740 mmHg 51%
12:00 +28°C° 0 mm 2 mps 739 mmHg 48%
13:00 +29°C° 0 mm 2 mps 739 mmHg 44%
14:00 +29°C° 0 mm 3 mps 739 mmHg 43%
15:00 +29°C° 0 mm 3 mps 738 mmHg 43%
16:00 +29°C° 0 mm 3 mps 738 mmHg 42%
17:00 +27°C° 0 mm 3 mps 738 mmHg 50%
18:00 +26°C° 0 mm 2 mps 738 mmHg 57%
19:00 +24°C° 0 mm 1 mps 738 mmHg 64%
20:00 +24°C° 0 mm 1 mps 737 mmHg 65%
21:00 +23°C° 0 mm 2 mps 737 mmHg 67%
22:00 +21°C° 0 mm 2 mps 737 mmHg 68%
23:00 +20°C° 0.2 mm 2 mps 737 mmHg 71%

30 July, Friday

Time Temperature Precipitation Wind Pressure Humidity
00:00 +20°C° 0.2 mm 2 mps 736 mmHg 74%
01:00 +19°C° 0.2 mm 2 mps 736 mmHg 78%
02:00 +19°C° 0.6 mm 2 mps 736 mmHg 81%
03:00 +19°C° 0.6 mm 2 mps 736 mmHg 85%
04:00 +19°C° 0.6 mm 2 mps 736 mmHg 89%
05:00 +19°C° 0.3 mm 2 mps 736 mmHg 86%
06:00 +20°C° 0.3 mm 2 mps 735 mmHg 84%
07:00 +21°C° 0.3 mm 2 mps 735 mmHg 81%
08:00 +24°C° 0 mm 2 mps 735 mmHg 74%
09:00 +26°C° 0 mm 3 mps 735 mmHg 67%
10:00 +27°C° 0 mm 3 mps 735 mmHg 59%
11:00 +28°C° 0 mm 4 mps 735 mmHg 59%
12:00 +28°C° 0 mm 5 mps 735 mmHg 59%
13:00 +28°C° 0 mm 6 mps 735 mmHg 58%
14:00 +27°C° 0.3 mm 5 mps 735 mmHg 63%
15:00 +26°C° 0.3 mm 5 mps 735 mmHg 68%
16:00 +25°C° 0.3 mm 4 mps 735 mmHg 73%
17:00 +23°C° 0.2 mm 4 mps 735 mmHg 76%
18:00 +22°C° 0.2 mm 3 mps 735 mmHg 80%
19:00 +21°C° 0.2 mm 2 mps 735 mmHg 84%
20:00 +21°C° 0 mm 2 mps 735 mmHg 85%
21:00 +20°C° 0 mm 2 mps 735 mmHg 86%
22:00 +19°C° 0 mm 2 mps 735 mmHg 87%
23:00 +19°C° 0 mm 2 mps 735 mmHg 87%
Show more